sat.trackr.live / text

‹ back to catalog

KUIPER-00425

NORAD 68934 · 2026-098R

PAYLOAD ACTIVE UNKNOWN

§ Identity

Operator
Country
US
Launch date
2026-04-30
Launch site
FRGUI
Launch vehicle
Mass (kg)
RCS (m²)

External: N2YO · Heavens-Above · Gunter

§ Orbital elements

Epoch: 2026-05-25T02:16:48.514944Z

Period
94.08 min
Inclination
51.8748°
Eccentricity
0.0018713
Mean motion
15.30595983 rev/d
Perigee alt
461.2 km
Apogee alt
486.9 km
Semi-major
6,852.2 km
B*
-2.0872e-4
RAAN
179.4725°
Arg perigee
73.0309°
Mean anomaly
287.2724°
Rev number
379

§ Raw data

KUIPER-004251 68934U 26098R   26145.09500596 -.00006667  00000+0 -20872-3 0  99952 68934  51.8748 179.4725 0018713  73.0309 287.2724 15.30595983  3791

JSON: /api/v1/satellites/68934 · /tle

For live sub-satellite position, see the globe view (requires WebGL).

§ Visibility from observer

Set your observer location to see the next 7 days of passes ≥ 10°. The values pass through the URL so the page stays shareable.

No JS? Fill the form by hand. The geolocation button needs JavaScript.